Location: Helsinki
(60.1699°N, 24.9384°E)
Time: 20:48:06
(UTC+02:00)

Transit 4A - Pass Details

Date: 29 October 2020
Orbit: 862 x 982 km, 66.8° (Epoch: 30 November)

Event Time Altitude Azimuth Distance (km) Brightness Sun altitude
Rises 14:00:16 0° 158° (SSE) 3,616 11.6 12.5°
Reaches altitude 10° 14:03:51 10° 137° (SE) 2,696 10.6 12.3°
Maximum altitude 14:07:23 16° 103° (ESE) 2,326 9.9 12.1°
Drops below altitude 10° 14:10:57 10° 69° (ENE) 2,735 9.9 11.9°
Sets 14:14:37 0° 49° (NE) 3,696 10.4 11.6°
